contact:dominique.lefevre@mio.osupytheas.fr, maurice.libes@osupytheas.fr, didier.mallarino@osupytheas.fr
Project:EMSO http://www.emso-fr.org/EMSO-France
Depth: 2436.0 m
Title:EMSO Ligure Ouest : Data MII capteur MICROCAT
DateTime_Computer,Latitude,Longitude,Temperature,Conductivity,Pressure,DateTime_Instrument
DateTime_Computer,Latitude,Longitude,degC,S m-1,dbar,DateTime_Instrument
2023-12-08T00:00:33Z,42.805,6.029,13.3042,4.60114,2470.754,2023-12-08T02:03:02Z
2023-12-08T00:03:36Z,42.805,6.029,13.3039,4.60114,2470.787,2023-12-08T02:06:05Z
2023-12-08T00:06:39Z,42.805,6.029,13.3038,4.60114,2470.777,2023-12-08T02:09:08Z
2023-12-08T00:09:42Z,42.805,6.029,13.3040,4.60116,2470.777,2023-12-08T02:12:11Z
2023-12-08T00:12:45Z,42.805,6.029,13.3041,4.60117,2470.74,2023-12-08T02:15:14Z
2023-12-08T00:15:48Z,42.805,6.029,13.3039,4.60114,2470.763,2023-12-08T02:18:17Z
2023-12-08T00:18:51Z,42.805,6.029,13.3042,4.60115,2470.74,2023-12-08T02:21:20Z
2023-12-08T00:21:54Z,42.805,6.029,13.3039,4.60117,2470.763,2023-12-08T02:24:23Z
2023-12-08T00:24:57Z,42.805,6.029,13.3043,4.60115,2470.763,2023-12-08T02:27:26Z
2023-12-08T00:28:00Z,42.805,6.029,13.3046,4.60116,2470.8,2023-12-08T02:30:29Z
2023-12-08T00:31:03Z,42.805,6.029,13.3043,4.60115,2470.81,2023-12-08T02:33:33Z
2023-12-08T00:34:06Z,42.805,6.029,13.3048,4.60119,2470.74,2023-12-08T02:36:36Z
2023-12-08T00:37:10Z,42.805,6.029,13.3042,4.60117,2470.763,2023-12-08T02:39:39Z
2023-12-08T00:40:13Z,42.805,6.029,13.3054,4.60127,2470.8,2023-12-08T02:42:42Z
2023-12-08T00:43:16Z,42.805,6.029,13.3048,4.60117,2470.787,2023-12-08T02:45:45Z
2023-12-08T00:46:19Z,42.805,6.029,13.3054,4.60142,2470.763,2023-12-08T02:48:48Z
2023-12-08T00:49:22Z,42.805,6.029,13.3053,4.60144,2470.787,2023-12-08T02:51:51Z
2023-12-08T00:52:25Z,42.805,6.029,13.3054,4.60117,2470.787,2023-12-08T02:54:54Z
2023-12-08T00:55:28Z,42.805,6.029,13.3063,4.60141,2470.787,2023-12-08T02:57:57Z
2023-12-08T00:58:31Z,42.805,6.029,13.3048,4.60140,2470.787,2023-12-08T03:01:00Z
2023-12-08T01:01:34Z,42.805,6.029,13.3044,4.60136,2470.763,2023-12-08T03:04:03Z
2023-12-08T01:04:37Z,42.805,6.029,13.3046,4.60162,2470.777,2023-12-08T03:07:06Z
2023-12-08T01:07:40Z,42.805,6.029,13.3055,4.60144,2470.763,2023-12-08T03:10:09Z
2023-12-08T01:10:43Z,42.805,6.029,13.3050,4.60147,2470.787,2023-12-08T03:13:13Z
2023-12-08T01:13:46Z,42.805,6.029,13.3051,4.60134,2470.787,2023-12-08T03:16:16Z
2023-12-08T01:16:50Z,42.805,6.029,13.3063,4.60152,2470.763,2023-12-08T03:19:19Z
2023-12-08T01:19:53Z,42.805,6.029,13.3048,4.60146,2470.787,2023-12-08T03:22:22Z
2023-12-08T01:22:56Z,42.805,6.029,13.3053,4.60150,2470.787,2023-12-08T03:25:25Z
2023-12-08T01:25:59Z,42.805,6.029,13.3046,4.60140,2470.787,2023-12-08T03:28:28Z
2023-12-08T01:29:02Z,42.805,6.029,13.3048,4.60134,2470.8,2023-12-08T03:31:31Z
2023-12-08T01:32:05Z,42.805,6.029,13.3057,4.60164,2470.763,2023-12-08T03:34:34Z
2023-12-08T01:35:08Z,42.805,6.029,13.3046,4.60150,2470.777,2023-12-08T03:37:37Z
2023-12-08T01:38:11Z,42.805,6.029,13.3043,4.60141,2470.8,2023-12-08T03:40:40Z
2023-12-08T01:41:14Z,42.805,6.029,13.3053,4.60157,2470.8,2023-12-08T03:43:43Z
2023-12-08T01:44:17Z,42.805,6.029,13.3048,4.60144,2470.81,2023-12-08T03:46:46Z
2023-12-08T01:47:20Z,42.805,6.029,13.3045,4.60149,2470.8,2023-12-08T03:49:49Z
2023-12-08T01:50:23Z,42.805,6.029,13.3049,4.60147,2470.787,2023-12-08T03:52:53Z
2023-12-08T01:53:26Z,42.805,6.029,13.3045,4.60150,2470.81,2023-12-08T03:55:56Z
2023-12-08T01:56:30Z,42.805,6.029,13.3060,4.60150,2470.81,2023-12-08T03:58:59Z
2023-12-08T01:59:33Z,42.805,6.029,13.3054,4.60152,2470.787,2023-12-08T04:02:02Z
2023-12-08T02:02:36Z,42.805,6.029,13.3049,4.60157,2470.787,2023-12-08T04:05:05Z
2023-12-08T02:05:39Z,42.805,6.029,13.3045,4.60145,2470.824,2023-12-08T04:08:08Z
2023-12-08T02:08:42Z,42.805,6.029,13.3051,4.60149,2470.8,2023-12-08T04:11:11Z
2023-12-08T02:11:45Z,42.805,6.029,13.3057,4.60160,2470.833,2023-12-08T04:14:14Z
2023-12-08T02:14:48Z,42.805,6.029,13.3056,4.60160,2470.824,2023-12-08T04:17:17Z
2023-12-08T02:17:51Z,42.805,6.029,13.3054,4.60152,2470.81,2023-12-08T04:20:20Z
2023-12-08T02:20:54Z,42.805,6.029,13.3048,4.60150,2470.787,2023-12-08T04:23:23Z
2023-12-08T02:23:57Z,42.805,6.029,13.3048,4.60158,2470.787,2023-12-08T04:26:26Z
2023-12-08T02:27:00Z,42.805,6.029,13.3052,4.60155,2470.81,2023-12-08T04:29:29Z
2023-12-08T02:30:03Z,42.805,6.029,13.3053,4.60145,2470.833,2023-12-08T04:32:33Z
2023-12-08T02:33:06Z,42.805,6.029,13.3052,4.60152,2470.81,2023-12-08T04:35:36Z
2023-12-08T02:36:10Z,42.805,6.029,13.3045,4.60150,2470.81,2023-12-08T04:38:39Z
2023-12-08T02:39:13Z,42.805,6.029,13.3044,4.60151,2470.847,2023-12-08T04:41:42Z
2023-12-08T02:42:16Z,42.805,6.029,13.3047,4.60161,2470.833,2023-12-08T04:44:45Z
2023-12-08T02:45:19Z,42.805,6.029,13.3056,4.60175,2470.833,2023-12-08T04:47:48Z
2023-12-08T02:48:22Z,42.805,6.029,13.3054,4.60164,2470.833,2023-12-08T04:50:51Z
2023-12-08T02:51:25Z,42.805,6.029,13.3053,4.60160,2470.81,2023-12-08T04:53:54Z
2023-12-08T02:54:28Z,42.805,6.029,13.3049,4.60152,2470.833,2023-12-08T04:56:57Z
2023-12-08T02:57:31Z,42.805,6.029,13.3051,4.60147,2470.833,2023-12-08T05:00:00Z
2023-12-08T03:00:34Z,42.805,6.029,13.3047,4.60148,2470.847,2023-12-08T05:03:03Z
2023-12-08T03:03:37Z,42.805,6.029,13.3046,4.60149,2470.81,2023-12-08T05:06:06Z
2023-12-08T03:06:40Z,42.805,6.029,13.3047,4.60141,2470.81,2023-12-08T05:09:09Z
2023-12-08T03:09:43Z,42.805,6.029,13.3051,4.60144,2470.833,2023-12-08T05:12:12Z
2023-12-08T03:12:46Z,42.805,6.029,13.3047,4.60147,2470.847,2023-12-08T05:15:16Z
2023-12-08T03:15:50Z,42.805,6.029,13.3048,4.60141,2470.833,2023-12-08T05:18:19Z
2023-12-08T03:18:53Z,42.805,6.029,13.3049,4.60135,2470.833,2023-12-08T05:21:22Z
2023-12-08T03:21:56Z,42.805,6.029,13.3044,4.60140,2470.81,2023-12-08T05:24:25Z
2023-12-08T03:24:59Z,42.805,6.029,13.3046,4.60142,2470.847,2023-12-08T05:27:28Z
2023-12-08T03:28:02Z,42.805,6.029,13.3046,4.60161,2470.833,2023-12-08T05:30:31Z
2023-12-08T03:31:05Z,42.805,6.029,13.3041,4.60140,2470.871,2023-12-08T05:33:34Z
2023-12-08T03:34:08Z,42.805,6.029,13.3050,4.60146,2470.833,2023-12-08T05:36:37Z
2023-12-08T03:37:11Z,42.805,6.029,13.3041,4.60144,2470.833,2023-12-08T05:39:40Z
2023-12-08T03:40:14Z,42.805,6.029,13.3046,4.60144,2470.871,2023-12-08T05:42:43Z
2023-12-08T03:43:17Z,42.805,6.029,13.3047,4.60150,2470.833,2023-12-08T05:45:46Z
2023-12-08T03:46:20Z,42.805,6.029,13.3046,4.60137,2470.847,2023-12-08T05:48:49Z
2023-12-08T03:49:23Z,42.805,6.029,13.3046,4.60152,2470.833,2023-12-08T05:51:53Z
2023-12-08T03:52:26Z,42.805,6.029,13.3047,4.60148,2470.847,2023-12-08T05:54:56Z
2023-12-08T03:55:30Z,42.805,6.029,13.3047,4.60155,2470.824,2023-12-08T05:57:59Z
2023-12-08T03:58:33Z,42.805,6.029,13.3046,4.60143,2470.81,2023-12-08T06:01:02Z
2023-12-08T04:01:36Z,42.805,6.029,13.3046,4.60143,2470.833,2023-12-08T06:04:05Z
2023-12-08T04:04:39Z,42.805,6.029,13.3046,4.60137,2470.857,2023-12-08T06:07:08Z
2023-12-08T04:07:42Z,42.805,6.029,13.3048,4.60139,2470.857,2023-12-08T06:10:11Z
2023-12-08T04:10:45Z,42.805,6.029,13.3048,4.60148,2470.824,2023-12-08T06:13:14Z
2023-12-08T04:13:48Z,42.805,6.029,13.3049,4.60140,2470.847,2023-12-08T06:16:17Z
2023-12-08T04:16:51Z,42.805,6.029,13.3044,4.60141,2470.833,2023-12-08T06:19:20Z
2023-12-08T04:19:54Z,42.805,6.029,13.3047,4.60144,2470.847,2023-12-08T06:22:23Z
2023-12-08T04:22:57Z,42.805,6.029,13.3046,4.60142,2470.833,2023-12-08T06:25:26Z
2023-12-08T04:26:00Z,42.805,6.029,13.3052,4.60138,2470.847,2023-12-08T06:28:29Z
2023-12-08T04:29:03Z,42.805,6.029,13.3048,4.60150,2470.833,2023-12-08T06:31:33Z
2023-12-08T04:32:06Z,42.805,6.029,13.3049,4.60155,2470.833,2023-12-08T06:34:36Z
2023-12-08T04:35:10Z,42.805,6.029,13.3048,4.60144,2470.833,2023-12-08T06:37:39Z
2023-12-08T04:38:13Z,42.805,6.029,13.3042,4.60158,2470.81,2023-12-08T06:40:42Z
2023-12-08T04:41:16Z,42.805,6.029,13.3045,4.60132,2470.857,2023-12-08T06:43:45Z
2023-12-08T04:44:19Z,42.805,6.029,13.3046,4.60152,2470.81,2023-12-08T06:46:48Z
2023-12-08T04:47:22Z,42.805,6.029,13.3045,4.60147,2470.847,2023-12-08T06:49:51Z
2023-12-08T04:50:25Z,42.805,6.029,13.3046,4.60138,2470.857,2023-12-08T06:52:54Z
2023-12-08T04:53:28Z,42.805,6.029,13.3048,4.60147,2470.833,2023-12-08T06:55:57Z
2023-12-08T04:56:31Z,42.805,6.029,13.3051,4.60138,2470.847,2023-12-08T06:59:00Z
2023-12-08T04:59:34Z,42.805,6.029,13.3043,4.60155,2470.857,2023-12-08T07:02:03Z
2023-12-08T05:02:37Z,42.805,6.029,13.3043,4.60140,2470.833,2023-12-08T07:05:06Z
2023-12-08T05:05:40Z,42.805,6.029,13.3048,4.60142,2470.833,2023-12-08T07:08:09Z
2023-12-08T05:08:43Z,42.805,6.029,13.3045,4.60144,2470.833,2023-12-08T07:11:12Z
2023-12-08T05:11:46Z,42.805,6.029,13.3049,4.60148,2470.847,2023-12-08T07:14:16Z
2023-12-08T05:14:49Z,42.805,6.029,13.3043,4.60147,2470.847,2023-12-08T07:17:19Z
2023-12-08T05:17:53Z,42.805,6.029,13.3048,4.60138,2470.833,2023-12-08T07:20:22Z
2023-12-08T05:20:56Z,42.805,6.029,13.3047,4.60147,2470.81,2023-12-08T07:23:25Z
2023-12-08T05:23:59Z,42.805,6.029,13.3047,4.60149,2470.833,2023-12-08T07:26:28Z
2023-12-08T05:27:02Z,42.805,6.029,13.3043,4.60136,2470.81,2023-12-08T07:29:31Z
2023-12-08T05:30:07Z,42.805,6.029,13.3048,4.60155,2470.847,2023-12-08T07:32:34Z
2023-12-08T05:33:10Z,42.805,6.029,13.3046,4.60144,2470.833,2023-12-08T07:35:39Z
2023-12-08T05:36:13Z,42.805,6.029,13.3050,4.60143,2470.871,2023-12-08T07:38:42Z
2023-12-08T05:39:16Z,42.805,6.029,13.3049,4.60152,2470.81,2023-12-08T07:41:45Z
2023-12-08T05:42:19Z,42.805,6.029,13.3055,4.60153,2470.833,2023-12-08T07:44:48Z
2023-12-08T05:45:22Z,42.805,6.029,13.3042,4.60142,2470.847,2023-12-08T07:47:51Z
2023-12-08T05:48:25Z,42.805,6.029,13.3048,4.60167,2470.847,2023-12-08T07:50:54Z
2023-12-08T05:51:28Z,42.805,6.029,13.3043,4.60152,2470.833,2023-12-08T07:53:57Z
2023-12-08T05:54:31Z,42.805,6.029,13.3052,4.60157,2470.833,2023-12-08T07:57:01Z
2023-12-08T05:57:34Z,42.805,6.029,13.3056,4.60165,2470.847,2023-12-08T08:00:04Z
2023-12-08T06:00:37Z,42.805,6.029,13.3045,4.60142,2470.81,2023-12-08T08:03:07Z
2023-12-08T06:03:41Z,42.805,6.029,13.3051,4.60150,2470.824,2023-12-08T08:06:10Z
2023-12-08T06:06:44Z,42.805,6.029,13.3046,4.60165,2470.833,2023-12-08T08:09:13Z
2023-12-08T06:09:47Z,42.805,6.029,13.3048,4.60175,2470.847,2023-12-08T08:12:16Z
2023-12-08T06:12:50Z,42.805,6.029,13.3043,4.60155,2470.847,2023-12-08T08:15:19Z
2023-12-08T06:15:53Z,42.805,6.029,13.3046,4.60144,2470.833,2023-12-08T08:18:22Z
2023-12-08T06:18:56Z,42.805,6.029,13.3050,4.60178,2470.833,2023-12-08T08:21:25Z
2023-12-08T06:21:59Z,42.805,6.029,13.3041,4.60150,2470.81,2023-12-08T08:24:28Z
2023-12-08T06:25:02Z,42.805,6.029,13.3046,4.60160,2470.787,2023-12-08T08:27:31Z
2023-12-08T06:28:05Z,42.805,6.029,13.3056,4.60147,2470.833,2023-12-08T08:30:34Z
2023-12-08T06:31:08Z,42.805,6.029,13.3052,4.60157,2470.81,2023-12-08T08:33:37Z
2023-12-08T06:34:11Z,42.805,6.029,13.3056,4.60148,2470.787,2023-12-08T08:36:41Z
2023-12-08T06:37:14Z,42.805,6.029,13.3049,4.60168,2470.847,2023-12-08T08:39:44Z
2023-12-08T06:40:17Z,42.805,6.029,13.3053,4.60162,2470.787,2023-12-08T08:42:47Z
2023-12-08T06:43:21Z,42.805,6.029,13.3056,4.60160,2470.824,2023-12-08T08:45:50Z
2023-12-08T06:46:24Z,42.805,6.029,13.3058,4.60157,2470.81,2023-12-08T08:48:53Z
2023-12-08T06:49:27Z,42.805,6.029,13.3052,4.60160,2470.81,2023-12-08T08:51:56Z
2023-12-08T06:52:30Z,42.805,6.029,13.3048,4.60149,2470.81,2023-12-08T08:54:59Z
2023-12-08T06:55:33Z,42.805,6.029,13.3050,4.60160,2470.81,2023-12-08T08:58:02Z
2023-12-08T06:58:36Z,42.805,6.029,13.3054,4.60165,2470.833,2023-12-08T09:01:05Z
2023-12-08T07:01:39Z,42.805,6.029,13.3043,4.60156,2470.8,2023-12-08T09:04:08Z
2023-12-08T07:04:42Z,42.805,6.029,13.3054,4.60150,2470.8,2023-12-08T09:07:11Z
2023-12-08T07:07:45Z,42.805,6.029,13.3043,4.60157,2470.81,2023-12-08T09:10:14Z
2023-12-08T07:10:48Z,42.805,6.029,13.3048,4.60165,2470.833,2023-12-08T09:13:17Z
2023-12-08T07:13:51Z,42.805,6.029,13.3038,4.60150,2470.81,2023-12-08T09:16:20Z
2023-12-08T07:16:54Z,42.805,6.029,13.3046,4.60157,2470.833,2023-12-08T09:19:24Z
2023-12-08T07:19:57Z,42.805,6.029,13.3051,4.60167,2470.833,2023-12-08T09:22:27Z
2023-12-08T07:23:01Z,42.805,6.029,13.3056,4.60179,2470.81,2023-12-08T09:25:30Z
2023-12-08T07:26:04Z,42.805,6.029,13.3054,4.60183,2470.787,2023-12-08T09:28:33Z
2023-12-08T07:29:07Z,42.805,6.029,13.3069,4.60206,2470.81,2023-12-08T09:31:36Z
2023-12-08T07:32:10Z,42.805,6.029,13.3068,4.60210,2470.787,2023-12-08T09:34:39Z
2023-12-08T07:35:13Z,42.805,6.029,13.3056,4.60185,2470.81,2023-12-08T09:37:42Z
2023-12-08T07:38:16Z,42.805,6.029,13.3063,4.60194,2470.787,2023-12-08T09:40:45Z
2023-12-08T07:41:19Z,42.805,6.029,13.3078,4.60168,2470.763,2023-12-08T09:43:48Z
2023-12-08T07:44:22Z,42.805,6.029,13.3061,4.60208,2470.8,2023-12-08T09:46:51Z
2023-12-08T07:47:25Z,42.805,6.029,13.3070,4.60216,2470.81,2023-12-08T09:49:54Z
2023-12-08T07:50:28Z,42.805,6.029,13.3051,4.60180,2470.787,2023-12-08T09:52:57Z
2023-12-08T07:53:31Z,42.805,6.029,13.3053,4.60184,2470.8,2023-12-08T09:56:00Z
2023-12-08T07:56:34Z,42.805,6.029,13.3056,4.60161,2470.787,2023-12-08T09:59:04Z
2023-12-08T07:59:37Z,42.805,6.029,13.3058,4.60203,2470.8,2023-12-08T10:02:07Z
2023-12-08T08:02:41Z,42.805,6.029,13.3076,4.60191,2470.787,2023-12-08T10:05:10Z
2023-12-08T08:05:44Z,42.805,6.029,13.3056,4.60178,2470.824,2023-12-08T10:08:13Z
2023-12-08T08:08:47Z,42.805,6.029,13.3059,4.60186,2470.81,2023-12-08T10:11:16Z
2023-12-08T08:11:50Z,42.805,6.029,13.3077,4.60201,2470.81,2023-12-08T10:14:19Z
2023-12-08T08:14:53Z,42.805,6.029,13.3055,4.60174,2470.787,2023-12-08T10:17:22Z
2023-12-08T08:17:56Z,42.805,6.029,13.3054,4.60180,2470.824,2023-12-08T10:20:25Z
2023-12-08T08:20:59Z,42.805,6.029,13.3062,4.60169,2470.8,2023-12-08T10:23:28Z
2023-12-08T08:24:02Z,42.805,6.029,13.3046,4.60182,2470.8,2023-12-08T10:26:31Z
2023-12-08T08:27:05Z,42.805,6.029,13.3069,4.60178,2470.81,2023-12-08T10:29:34Z
2023-12-08T08:30:08Z,42.805,6.029,13.3051,4.60187,2470.787,2023-12-08T10:32:37Z
2023-12-08T08:33:11Z,42.805,6.029,13.3063,4.60213,2470.787,2023-12-08T10:35:41Z
2023-12-08T08:36:14Z,42.805,6.029,13.3082,4.60202,2470.81,2023-12-08T10:38:44Z
2023-12-08T08:39:18Z,42.805,6.029,13.3057,4.60162,2470.787,2023-12-08T10:41:47Z
2023-12-08T08:42:21Z,42.805,6.029,13.3063,4.60178,2470.8,2023-12-08T10:44:50Z
2023-12-08T08:45:24Z,42.805,6.029,13.3048,4.60224,2470.8,2023-12-08T10:47:53Z
2023-12-08T08:48:27Z,42.805,6.029,13.3067,4.60217,2470.787,2023-12-08T10:50:56Z
2023-12-08T08:51:30Z,42.805,6.029,13.3052,4.60205,2470.763,2023-12-08T10:53:59Z
2023-12-08T08:54:33Z,42.805,6.029,13.3059,4.60202,2470.787,2023-12-08T10:57:02Z
2023-12-08T08:57:36Z,42.805,6.029,13.3051,4.60193,2470.8,2023-12-08T11:00:05Z
2023-12-08T09:00:39Z,42.805,6.029,13.3074,4.60182,2470.763,2023-12-08T11:03:08Z
2023-12-08T09:03:42Z,42.805,6.029,13.3067,4.60208,2470.777,2023-12-08T11:06:11Z
2023-12-08T09:06:45Z,42.805,6.029,13.3056,4.60184,2470.787,2023-12-08T11:09:14Z
2023-12-08T09:09:48Z,42.805,6.029,13.3064,4.60164,2470.74,2023-12-08T11:12:17Z
2023-12-08T09:12:51Z,42.805,6.029,13.3063,4.60172,2470.74,2023-12-08T11:15:21Z
2023-12-08T09:15:54Z,42.805,6.029,13.3055,4.60179,2470.763,2023-12-08T11:18:24Z
2023-12-08T09:18:58Z,42.805,6.029,13.3054,4.60180,2470.8,2023-12-08T11:21:27Z
2023-12-08T09:22:01Z,42.805,6.029,13.3059,4.60168,2470.787,2023-12-08T11:24:30Z
2023-12-08T09:25:04Z,42.805,6.029,13.3060,4.60167,2470.787,2023-12-08T11:27:33Z
2023-12-08T09:28:07Z,42.805,6.029,13.3064,4.60175,2470.763,2023-12-08T11:30:36Z
2023-12-08T09:31:10Z,42.805,6.029,13.3073,4.60176,2470.763,2023-12-08T11:33:39Z
2023-12-08T09:34:13Z,42.805,6.029,13.3074,4.60178,2470.763,2023-12-08T11:36:42Z
2023-12-08T09:37:16Z,42.805,6.029,13.3090,4.60169,2470.763,2023-12-08T11:39:45Z
2023-12-08T09:40:19Z,42.805,6.029,13.3067,4.60188,2470.8,2023-12-08T11:42:48Z
2023-12-08T09:43:22Z,42.805,6.029,13.3055,4.60149,2470.777,2023-12-08T11:45:51Z
2023-12-08T09:46:25Z,42.805,6.029,13.3075,4.60148,2470.8,2023-12-08T11:48:54Z
2023-12-08T09:49:28Z,42.805,6.029,13.3073,4.60156,2470.763,2023-12-08T11:51:58Z
2023-12-08T09:52:31Z,42.805,6.029,13.3069,4.60145,2470.824,2023-12-08T11:55:01Z
2023-12-08T09:55:35Z,42.805,6.029,13.3063,4.60155,2470.763,2023-12-08T11:58:04Z
2023-12-08T09:58:38Z,42.805,6.029,13.3075,4.60124,2470.763,2023-12-08T12:01:07Z
2023-12-08T10:01:41Z,42.805,6.029,13.3046,4.60122,2470.824,2023-12-08T12:04:10Z
2023-12-08T10:04:44Z,42.805,6.029,13.3061,4.60138,2470.787,2023-12-08T12:07:13Z
2023-12-08T10:07:47Z,42.805,6.029,13.3052,4.60131,2470.8,2023-12-08T12:10:16Z
2023-12-08T10:10:50Z,42.805,6.029,13.3042,4.60123,2470.787,2023-12-08T12:13:19Z
2023-12-08T10:13:53Z,42.805,6.029,13.3054,4.60144,2470.787,2023-12-08T12:16:22Z
2023-12-08T10:16:56Z,42.805,6.029,13.3064,4.60130,2470.763,2023-12-08T12:19:25Z
2023-12-08T10:19:59Z,42.805,6.029,13.3067,4.60120,2470.787,2023-12-08T12:22:28Z
2023-12-08T10:23:02Z,42.805,6.029,13.3049,4.60154,2470.8,2023-12-08T12:25:31Z
2023-12-08T10:26:05Z,42.805,6.029,13.3059,4.60141,2470.796,2023-12-08T12:28:34Z
2023-12-08T10:29:08Z,42.805,6.029,13.3048,4.60133,2470.763,2023-12-08T12:31:38Z
2023-12-08T10:32:11Z,42.805,6.029,13.3048,4.60144,2470.8,2023-12-08T12:34:41Z
2023-12-08T10:35:15Z,42.805,6.029,13.3036,4.60117,2470.8,2023-12-08T12:37:44Z
2023-12-08T10:38:18Z,42.805,6.029,13.3041,4.60122,2470.8,2023-12-08T12:40:47Z
2023-12-08T10:41:21Z,42.805,6.029,13.3046,4.60123,2470.763,2023-12-08T12:43:50Z
2023-12-08T10:44:24Z,42.805,6.029,13.3037,4.60119,2470.773,2023-12-08T12:46:53Z
2023-12-08T10:47:27Z,42.805,6.029,13.3043,4.60118,2470.787,2023-12-08T12:49:56Z
2023-12-08T10:50:30Z,42.805,6.029,13.3039,4.60126,2470.763,2023-12-08T12:52:59Z
2023-12-08T10:53:33Z,42.805,6.029,13.3044,4.60116,2470.824,2023-12-08T12:56:02Z
2023-12-08T10:56:36Z,42.805,6.029,13.3040,4.60118,2470.787,2023-12-08T12:59:05Z
2023-12-08T10:59:39Z,42.805,6.029,13.3038,4.60119,2470.787,2023-12-08T13:02:08Z
2023-12-08T11:02:42Z,42.805,6.029,13.3037,4.60117,2470.787,2023-12-08T13:05:11Z
2023-12-08T11:05:45Z,42.805,6.029,13.3038,4.60114,2470.763,2023-12-08T13:08:15Z
2023-12-08T11:08:48Z,42.805,6.029,13.3033,4.60117,2470.787,2023-12-08T13:11:18Z
2023-12-08T11:11:51Z,42.805,6.029,13.3034,4.60117,2470.773,2023-12-08T13:14:21Z
2023-12-08T11:14:55Z,42.805,6.029,13.3035,4.60114,2470.787,2023-12-08T13:17:24Z
2023-12-08T11:17:58Z,42.805,6.029,13.3034,4.60114,2470.763,2023-12-08T13:20:27Z
2023-12-08T11:21:01Z,42.805,6.029,13.3039,4.60116,2470.763,2023-12-08T13:23:30Z
2023-12-08T11:24:04Z,42.805,6.029,13.3034,4.60114,2470.787,2023-12-08T13:26:33Z
2023-12-08T11:27:07Z,42.805,6.029,13.3034,4.60117,2470.81,2023-12-08T13:29:36Z
2023-12-08T11:30:10Z,42.805,6.029,13.3037,4.60117,2470.824,2023-12-08T13:32:39Z
2023-12-08T11:33:13Z,42.805,6.029,13.3037,4.60114,2470.787,2023-12-08T13:35:42Z
2023-12-08T11:36:16Z,42.805,6.029,13.3037,4.60116,2470.8,2023-12-08T13:38:45Z
2023-12-08T11:39:19Z,42.805,6.029,13.3037,4.60115,2470.81,2023-12-08T13:41:48Z
2023-12-08T11:42:22Z,42.805,6.029,13.3037,4.60114,2470.8,2023-12-08T13:44:51Z
2023-12-08T11:45:25Z,42.805,6.029,13.3036,4.60114,2470.787,2023-12-08T13:47:55Z
2023-12-08T11:48:28Z,42.805,6.029,13.3039,4.60115,2470.787,2023-12-08T13:50:58Z
2023-12-08T11:51:32Z,42.805,6.029,13.3034,4.60117,2470.787,2023-12-08T13:54:01Z
2023-12-08T11:54:35Z,42.805,6.029,13.3037,4.60115,2470.8,2023-12-08T13:57:04Z
2023-12-08T11:57:38Z,42.805,6.029,13.3037,4.60117,2470.81,2023-12-08T14:00:07Z
2023-12-08T12:00:41Z,42.805,6.029,13.3037,4.60116,2470.763,2023-12-08T14:03:10Z
2023-12-08T12:03:44Z,42.805,6.029,13.3037,4.60117,2470.824,2023-12-08T14:06:13Z
2023-12-08T12:06:47Z,42.805,6.029,13.3035,4.60115,2470.787,2023-12-08T14:09:16Z
2023-12-08T12:09:50Z,42.805,6.029,13.3036,4.60114,2470.81,2023-12-08T14:12:19Z
2023-12-08T12:12:53Z,42.805,6.029,13.3040,4.60115,2470.787,2023-12-08T14:15:22Z
2023-12-08T12:15:56Z,42.805,6.029,13.3040,4.60117,2470.81,2023-12-08T14:18:25Z
2023-12-08T12:18:59Z,42.805,6.029,13.3040,4.60115,2470.81,2023-12-08T14:21:28Z
2023-12-08T12:22:02Z,42.805,6.029,13.3036,4.60117,2470.833,2023-12-08T14:24:32Z
2023-12-08T12:25:05Z,42.805,6.029,13.3036,4.60115,2470.81,2023-12-08T14:27:35Z
2023-12-08T12:28:09Z,42.805,6.029,13.3038,4.60117,2470.787,2023-12-08T14:30:38Z
2023-12-08T12:31:12Z,42.805,6.029,13.3039,4.60116,2470.824,2023-12-08T14:33:41Z
2023-12-08T12:34:15Z,42.805,6.029,13.3036,4.60114,2470.787,2023-12-08T14:36:44Z
2023-12-08T12:37:18Z,42.805,6.029,13.3036,4.60115,2470.824,2023-12-08T14:39:47Z
2023-12-08T12:40:21Z,42.805,6.029,13.3035,4.60117,2470.81,2023-12-08T14:42:50Z
2023-12-08T12:43:24Z,42.805,6.029,13.3041,4.60115,2470.81,2023-12-08T14:45:53Z
2023-12-08T12:46:27Z,42.805,6.029,13.3034,4.60115,2470.81,2023-12-08T14:48:56Z
2023-12-08T12:49:30Z,42.805,6.029,13.3034,4.60115,2470.81,2023-12-08T14:51:59Z
2023-12-08T12:52:33Z,42.805,6.029,13.3035,4.60117,2470.824,2023-12-08T14:55:02Z
2023-12-08T12:55:36Z,42.805,6.029,13.3039,4.60116,2470.81,2023-12-08T14:58:05Z
2023-12-08T12:58:39Z,42.805,6.029,13.3036,4.60117,2470.81,2023-12-08T15:01:09Z
2023-12-08T13:01:42Z,42.805,6.029,13.3035,4.60115,2470.81,2023-12-08T15:04:12Z
2023-12-08T13:04:45Z,42.805,6.029,13.3041,4.60116,2470.81,2023-12-08T15:07:15Z
2023-12-08T13:07:49Z,42.805,6.029,13.3044,4.60124,2470.824,2023-12-08T15:10:18Z
2023-12-08T13:10:52Z,42.805,6.029,13.3040,4.60116,2470.81,2023-12-08T15:13:21Z
2023-12-08T13:13:55Z,42.805,6.029,13.3038,4.60117,2470.833,2023-12-08T15:16:24Z
2023-12-08T13:16:58Z,42.805,6.029,13.3036,4.60117,2470.824,2023-12-08T15:19:27Z
2023-12-08T13:20:01Z,42.805,6.029,13.3040,4.60114,2470.81,2023-12-08T15:22:30Z
2023-12-08T13:23:04Z,42.805,6.029,13.3037,4.60118,2470.787,2023-12-08T15:25:33Z
2023-12-08T13:26:07Z,42.805,6.029,13.3036,4.60114,2470.8,2023-12-08T15:28:36Z
2023-12-08T13:29:10Z,42.805,6.029,13.3036,4.60117,2470.82,2023-12-08T15:31:39Z
2023-12-08T13:32:11Z,42.805,6.029,13.3037,4.60115,2470.81,2023-12-08T15:34:40Z
2023-12-08T13:35:14Z,42.805,6.029,13.3037,4.60119,2470.824,2023-12-08T15:37:44Z
2023-12-08T13:38:17Z,42.805,6.029,13.3036,4.60117,2470.833,2023-12-08T15:40:47Z
2023-12-08T13:41:20Z,42.805,6.029,13.3036,4.60115,2470.787,2023-12-08T15:43:50Z
2023-12-08T13:44:24Z,42.805,6.029,13.3036,4.60114,2470.824,2023-12-08T15:46:53Z
2023-12-08T13:47:27Z,42.805,6.029,13.3039,4.60116,2470.833,2023-12-08T15:49:56Z
2023-12-08T13:50:30Z,42.805,6.029,13.3041,4.60118,2470.847,2023-12-08T15:52:59Z
2023-12-08T13:53:33Z,42.805,6.029,13.3041,4.60116,2470.833,2023-12-08T15:56:02Z
2023-12-08T13:56:36Z,42.805,6.029,13.3036,4.60117,2470.833,2023-12-08T15:59:05Z
2023-12-08T13:59:39Z,42.805,6.029,13.3039,4.60119,2470.833,2023-12-08T16:02:08Z
2023-12-08T14:02:42Z,42.805,6.029,13.3037,4.60117,2470.833,2023-12-08T16:05:11Z
2023-12-08T14:05:45Z,42.805,6.029,13.3041,4.60116,2470.82,2023-12-08T16:08:14Z
2023-12-08T14:08:48Z,42.805,6.029,13.3039,4.60116,2470.847,2023-12-08T16:11:17Z
2023-12-08T14:11:51Z,42.805,6.029,13.3039,4.60116,2470.857,2023-12-08T16:14:20Z
2023-12-08T14:14:54Z,42.805,6.029,13.3036,4.60114,2470.857,2023-12-08T16:17:24Z
2023-12-08T14:17:57Z,42.805,6.029,13.3036,4.60115,2470.824,2023-12-08T16:20:27Z
2023-12-08T14:21:01Z,42.805,6.029,13.3040,4.60117,2470.857,2023-12-08T16:23:30Z
2023-12-08T14:24:04Z,42.805,6.029,13.3034,4.60114,2470.833,2023-12-08T16:26:33Z
2023-12-08T14:27:07Z,42.805,6.029,13.3037,4.60115,2470.847,2023-12-08T16:29:36Z
2023-12-08T14:30:10Z,42.805,6.029,13.3038,4.60115,2470.857,2023-12-08T16:32:39Z
2023-12-08T14:33:13Z,42.805,6.029,13.3043,4.60119,2470.871,2023-12-08T16:35:42Z
2023-12-08T14:36:16Z,42.805,6.029,13.3044,4.60115,2470.833,2023-12-08T16:38:45Z
2023-12-08T14:39:19Z,42.805,6.029,13.3036,4.60115,2470.857,2023-12-08T16:41:48Z
2023-12-08T14:42:22Z,42.805,6.029,13.3049,4.60116,2470.871,2023-12-08T16:44:51Z
2023-12-08T14:45:25Z,42.805,6.029,13.3039,4.60114,2470.894,2023-12-08T16:47:54Z
2023-12-08T14:48:28Z,42.805,6.029,13.3035,4.60113,2470.894,2023-12-08T16:50:57Z
2023-12-08T14:51:31Z,42.805,6.029,13.3037,4.60121,2470.857,2023-12-08T16:54:01Z
2023-12-08T14:54:34Z,42.805,6.029,13.3039,4.60114,2470.833,2023-12-08T16:57:04Z
2023-12-08T14:57:37Z,42.805,6.029,13.3041,4.60126,2470.857,2023-12-08T17:00:07Z
2023-12-08T15:00:41Z,42.805,6.029,13.3049,4.60122,2470.857,2023-12-08T17:03:10Z